Location: LDNL
(36.4545°S, 141.6685°E)
Time: 21:25:47
(UTC+11:00)

Vanguard 2 Rocket - All Passes

Search period start: 30 January 2023 00:00
Search period end: 09 February 2023 00:00
Orbit: 556 x 3318 km, 32.9° (Epoch: 29 January)

Date Brightness Start Highest point End Pass type
(mag) Time Alt. Az. Time Alt. Az. Time Alt. Az.
30 Jan - 01:02:19 10° WNW 01:21:27 71° NNE 01:40:08 10° E visible
30 Jan - 03:19:31 10° W 03:40:10 79° N 03:55:37 10° E visible
30 Jan - 05:38:48 10° W 05:57:11 58° NNW 06:08:48 10° NE visible
30 Jan - 08:00:14 10° W 08:10:41 23° NW 08:18:05 10° N daylight
30 Jan - 21:49:29 10° NNW 22:02:20 32° NE 22:18:30 10° E visible
31 Jan - 00:00:55 10° NW 00:18:25 63° NNE 00:37:52 10° E visible
31 Jan - 02:16:43 10° W 02:36:59 80° N 02:54:21 10° E visible
31 Jan - 04:35:11 10° W 04:55:08 69° NNW 05:08:40 10° ENE visible
31 Jan - 06:55:26 10° W 07:10:08 35° NW 07:19:49 10° NNE daylight
31 Jan - 20:51:13 10° N 21:01:03 21° NE 21:13:22 10° E visible
31 Jan - 23:00:13 10° NW 23:15:46 53° NNE 23:35:03 10° E visible
01 Feb - 01:14:29 10° WNW 01:33:40 77° N 01:52:36 10° E visible
01 Feb - 03:31:55 10° W 03:52:28 76° NNW 04:08:00 10° ENE visible
01 Feb - 05:51:17 10° W 06:08:58 48° NW 06:20:37 10° NE visible
01 Feb - 08:14:59 10° W 08:21:54 15° NW 08:27:29 10° NNW daylight
01 Feb - 19:56:09 10° NE 20:00:16 12° NE 20:04:49 10° ENE daylight
01 Feb - 22:00:15 10° NNW 22:13:42 42° NE 22:31:35 10° E visible
02 Feb - 00:12:52 10° WNW 00:30:27 71° NNE 00:50:19 10° E visible
02 Feb - 02:29:06 10° W 02:49:20 79° N 03:06:48 10° ENE visible
02 Feb - 04:47:36 10° W 05:07:08 60° NNW 05:20:43 10° NE visible
02 Feb - 07:08:42 10° W 07:21:28 26° NW 07:30:35 10° N daylight
02 Feb - 21:01:08 10° N 21:12:14 30° NE 21:27:18 10° E visible
02 Feb - 23:11:55 10° NW 23:27:34 63° NNE 23:47:32 10° E visible
03 Feb - 01:26:48 10° W 01:45:58 80° N 02:05:03 10° E visible
03 Feb - 03:44:19 10° W 04:04:39 69° NNW 04:20:14 10° ENE visible
03 Feb - 06:04:00 10° W 06:20:29 38° NW 06:31:57 10° NNE visible
03 Feb - 20:03:18 10° N 20:11:22 19° NE 20:21:46 10° E daylight
03 Feb - 22:11:36 10° NW 22:25:14 52° NNE 22:44:14 10° E visible
04 Feb - 00:25:04 10° WNW 00:42:37 77° N 01:02:45 10° E visible
04 Feb - 02:41:31 10° W 03:01:37 76° NNW 03:19:08 10° ENE visible
04 Feb - 05:00:04 10° W 05:18:51 50° NNW 05:32:26 10° NE visible
04 Feb - 07:23:06 10° W 07:32:36 18° NW 07:40:10 10° NNW daylight
04 Feb - 21:11:59 10° NNW 21:23:33 40° NE 21:40:22 10° E visible
04 Feb - 23:23:56 10° WNW 23:39:34 71° NNE 23:59:56 10° E visible
05 Feb - 01:39:12 10° W 01:58:17 79° N 02:17:26 10° ENE visible
05 Feb - 03:56:44 10° W 04:16:35 61° NNW 04:32:11 10° NE visible
05 Feb - 06:17:12 10° W 06:31:46 28° NW 06:42:39 10° N visible
05 Feb - 20:13:12 10° N 20:22:31 28° NE 20:35:48 10° E daylight
05 Feb - 22:23:22 10° NW 22:37:01 62° NNE 22:56:40 10° E visible
06 Feb - 00:37:24 10° W 00:54:54 80° N 01:15:09 10° E visible
06 Feb - 02:53:55 10° W 03:13:45 70° NNW 03:31:16 10° ENE visible
06 Feb - 05:12:46 10° W 05:30:21 40° NW 05:43:40 10° NNE visible
06 Feb - 07:42:51 10° WNW 07:43:41 10° NW 07:44:31 10° NW daylight
06 Feb - 19:15:51 10° NNE 19:22:03 16° NE 19:29:57 10° E daylight
06 Feb - 21:23:24 10° NW 21:35:05 50° NNE 21:52:59 10° E visible
06 Feb - 23:36:10 10° WNW 23:51:44 77° N 00:12:18 10° E visible
07 Feb - 01:51:37 10° W 02:10:32 76° NNW 02:29:42 10° ENE visible
07 Feb - 04:09:13 10° W 04:28:18 51° NNW 04:43:46 10° NE visible
07 Feb - 06:31:24 10° W 06:42:54 20° NW 06:52:16 10° N visible
07 Feb - 20:24:05 10° NNW 20:33:51 37° NE 20:48:54 10° E daylight
07 Feb - 22:35:26 10° WNW 22:49:00 70° NNE 23:09:01 10° E visible
08 Feb - 00:49:50 10° W 01:07:12 79° N 01:27:28 10° ENE visible
08 Feb - 03:06:20 10° W 03:25:41 61° NNW 03:43:07 10° NE visible
08 Feb - 05:25:56 10° W 05:41:38 30° NW 05:54:14 10° N visible
08 Feb - 19:25:36 10° N 19:33:13 25° NE 19:44:14 10° E daylight
08 Feb - 21:35:13 10° NW 21:46:52 60° NNE 22:05:24 10° E visible
